Location: Diswood
(37.2314°N, 89.3229°W)
Time: 14:59:16
(UTC+00:00)

Daily predictions for brighter satellites

Satellite Brightness Start Highest point End
(mag) Time Altitude Azimuth Time Altitude Azimuth Time Altitude Azimuth
Cosmos 1300 4.0 12:00:40 10° SSE 12:04:15 43° E 12:07:53 10° NNE
Cosmos 2228 4.4 12:01:02 10° SSE 12:05:02 41° E 12:09:01 10° NNE
Cosmos 1814 Rocket 4.0 12:00:41 10° SW 12:05:41 53° WNW 12:10:42 10° N
Cosmos 1626 Rocket 3.5 12:01:37 10° NNW 12:06:04 67° W 12:10:29 10° S
Cosmos 1937 Rocket 3.7 12:02:14 10° NNW 12:07:17 47° WSW 12:12:16 10° S
Cosmos 372 Rocket 4.0 12:03:19 10° NNW 12:08:37 86° ENE 12:13:50 10° SSE
SL-19 R/B 4.1 12:05:35 10° NNE 12:09:30 88° E 12:12:52 10° SSW
GEOS 3 Rocket 3.8 12:04:57 10° SSE 12:10:12 62° WSW 12:15:34 10° NW
Cosmos 1455 Rocket 4.4 12:07:18 10° WSW 12:10:15 18° WNW 12:13:11 10° NNW
USA 276 4.3 12:09:49 11° WSW 12:10:23 12° SW 12:11:36 10° SSW
Envisat 3.1 12:07:21 10° N 12:12:19 54° WNW 12:17:15 10° SSW
ERS-2 3.3 12:10:54 10° SSW 12:13:50 23° W 12:16:23 12° NW
Cosmos 1689 Rocket 3.1 12:14:21 10° SSW 12:16:51 26° W 12:19:12 11° NW
ATLAS CENTAUR R/B 0.9 12:13:50 10° SW 12:17:33 72° WNW 12:21:13 10° NNE
NOAA 6 4.0 12:13:19 10° N 12:18:28 68° WNW 12:23:36 10° SSW
Cosmos 1953 3.5 12:15:58 10° SW 12:18:59 21° WNW 12:22:02 10° NNW
H-2A R/B 2.6 12:16:23 10° NNE 12:20:54 85° WNW 12:25:23 10° SSW
COSMOS 2428 4.4 12:20:32 12° WNW 12:21:53 12° NW 12:24:16 10° NNW
BREEZE M DEB (TANK) 1.8 12:20:56 15° WNW 12:22:22 39° SW 12:24:43 10° SE
Cosmos 1908 4.1 12:19:19 10° SW 12:22:36 27° WNW 12:25:53 10° NNW
CORIOLIS 4.5 12:18:33 10° NNE 12:23:54 73° ESE 12:29:13 10° S
Cosmos 44 Rocket 3.8 12:22:44 10° NW 12:27:45 48° WSW 12:32:42 10° S
Cosmos 1758 Rocket 3.7 12:23:54 10° N 12:28:25 82° E 12:32:52 10° S
NOAA 11 4.3 12:26:58 10° NNE 12:32:28 83° ESE 12:37:53 10° SSW
USA 307 2.9 12:30:07 10° SW 12:34:18 64° NW 12:38:30 10° NE
Okean O Rocket 1.6 12:30:02 10° NNE 12:34:25 89° WNW 12:38:45 10° SSW
Cosmos 1315 Rocket 2.7 12:35:08 10° SSW 12:39:03 79° W 12:42:58 10° N
CZ-2C R/B 1.6 12:35:22 10° WSW 12:39:25 61° S 12:43:11 10° E
Cosmos 1092 Rocket 4.1 12:33:37 10° NNW 12:39:34 52° W 12:45:31 10° SSW
MOS 1-B 4.5 12:35:06 10° N 12:40:42 54° WNW 12:46:18 10° SSW
ATLAS 3B R/B 3.3 23:27:02 10° NW 23:34:02 69° WSW 23:41:17 10° SSE
BREEZE-M DEB (TANK) 2.0 23:33:27 10° WNW 23:36:18 82° SSW 23:40:08 10° SE
Cosmos 1300 2.7 23:32:40 10° N 23:36:30 89° E 23:40:19 10° S
FengYun 1-2 T 4.2 23:34:02 10° SSE 23:39:33 76° ENE 23:45:09 10° N
YAOGAN 1 4.1 23:39:53 10° ESE 23:42:30 16° ENE 23:45:06 10° NNE
Cosmos 1892 Rocket 3.5 23:38:26 10° S 23:42:45 68° E 23:47:03 10° NNE
Cosmos 2279 Rocket 4.0 23:37:31 10° N 23:43:47 73° E 23:50:01 10° SSE
ERS-2 3.2 23:41:06 10° NE 23:44:07 25° E 23:47:09 10° SSE
AQUARIUS 4.4 23:39:45 10° S 23:44:13 75° WSW 23:48:43 10° NNW
CZ-4B R/B 1.5 23:40:58 10° NNE 23:44:15 52° E 23:47:26 10° S
Cosmos 1606 Rocket 3.5 23:40:16 10° N 23:44:41 84° E 23:49:06 10° S
CORIOLIS 4.3 23:39:34 10° SSE 23:44:59 83° WSW 23:50:24 10° NNW
H-2A R/B 2.9 23:41:04 10° N 23:45:24 55° WNW 23:49:36 10° SSW
BREEZE-M DEB (TANK) 3.7 23:43:11 10° WNW 23:45:57 66° SW 23:54:30 10° SE
SMAP 3.9 23:44:51 10° S 23:49:25 57° W 23:54:00 10° NNW
Cosmos 2263 Rocket 4.1 23:44:54 10° WSW 23:49:41 27° WNW 23:54:29 10° N
Cosmos 2228 3.3 23:46:47 10° NNW 23:51:03 72° W 23:55:18 10° S
